Location: Biharia
(46.4333°N, 22.8000°E)
Time: 21:17:30
(UTC+00:00)

CZ-4 R/B - Pass Details

Date: 16 October 2021
Orbit: 531 x 595 km, 97.8° (Epoch: 29 November)

Event Time Altitude Azimuth Distance (km) Brightness Sun altitude
Rises 18:02:18 0° 196° (SSW) 2,701 4.9 -25.1°
Reaches altitude 10° 18:04:42 10° 210° (SSW) 1,824 4.1 -25.5°
Maximum altitude 18:07:56 24° 266° (W) 1,174 3.6 -26.1°
Drops below altitude 10° 18:11:16 10° 321° (NW) 1,869 4.7 -26.6°
Sets 18:13:46 0° 336° (NNW) 2,785 5.5 -27.0°
